User: anonymous   Login
Location: Keeble Observatory
(37.7625°N, 77.4755°W)
Time: 04:15:28
(UTC-04:00)
Language:

Cosmos 1484 Rocket - Orbit

View from above orbital plane
View from above orbital plane
View from above satellite
View from above satellite

Ground track
Ground track

The orbit data is extracted from the following two-line orbital elements,

1 14208U 83075B   17081.90862004 +.00000700 +00000-0 +45698-4 0  9997
2 14208 097.3440 096.0087 0041103 069.8290 290.7354 15.10301303834188
Epoch (UTC): 22 March 2017 21:48:24
Eccentricity: 0.0041103
inclination: 97.3440°
perigee height: 507 km
apogee height: 564 km
right ascension of ascending node: 96.0087°
argument of perigee: 69.8290°
revolutions per day: 15.10301303
mean anomaly at epoch: 290.7354°
orbit number at epoch: 83418

The dashed part of the orbit path shows where the satellite is in the earth's shadow,  

DLR